Wind_Speed
47 44 42 42 40 53 60 6 5 29 50 11 10 17 14 10 26 13 6 8 13 16 14 13 16 15 2 5 10 10 10 7 7 17 3 6 12 14 14 6 6 6 7 14
45 43 43 40 41 64 32 8 3 11 26 12 12 9 22 11 16 20 11 12 8 1 13 6 12 8 3 4 10 12 11 9 6 6 6 6 10 10 9 6 2 14 10 10
45 42 43 41 39 56 21 5 5 2 1 4 18 14 15 13 4 17 13 6 10 11 10 10 13 12 4 3 3 5 4 6 14 13 2 7 14 13 12 11 7 14 17 25
43 42 40 40 39 56 17 3 4 6 10 12 21 20 14 15 8 7 14 5 11 15 6 6 6 10 6 4 1 2 4 9 5 0 2 3 8 10 12 14 11 10 16 21
42 41 38 40 35 44 5 5 5 4 14 16 17 20 16 23 8 16 15 11 14 14 8 13 10 12 10 10 6 6 0 3 2 1 2 4 11 14 14 15 16 20 19 19
37 38 38 39 39 39 3 2 3 6 16 14 13 16 20 22 17 1 10 17 9 10 8 11 13 7 10 9 11 8 6 6 5 3 5 4 10 19 19 17 13 12 13 11
33 34 32 39 42 47 8 7 5 4 6 14 20 19 17 20 22 8 9 15 8 9 18 20 15 13 10 8 6 9 11 11 5 4 6 7 3 4 4 11 8 11 12 11
29 30 26 24 39 29 21 12 4 4 5 11 16 14 9 14 11 6 9 4 12 22 19 7 7 4 5 6 4 7 9 7 5 5 10 4 10 10 8 12 10 9 8 5
26 29 30 35 35 29 26 17 14 4 7 6 5 11 21 10 7 5 4 10 21 17 6 5 6 7 8 9 8 3 6 6 6 5 5 7 9 11 4 3 10 9 2 6
33 38 39 38 36 29 31 10 16 6 4 3 10 4 12 8 8 6 5 10 10 8 4 5 5 4 8 10 12 9 8 5 11 9 7 4 8 9 9 6 3 2 6 10
47 43 44 40 38 35 27 13 14 8 3 3 2 4 5 7 8 10 12 8 3 5 3 4 4 4 7 5 11 9 10 11 6 8 8 10 14 12 7 4 3 7 8 11
45 45 42 35 28 25 30 9 16 23 6 5 14 16 8 1 7 13 12 4 11 6 4 3 4 3 5 8 7 6 7 6 5 9 5 6 15 6 1 2 6 6 9 10
42 38 39 38 35 27 23 29 33 28 6 6 5 8 12 16 20 24 6 4 3 4 4 3 3 3 4 6 6 9 7 6 4 6 9 9 9 6 4 2 6 7 8 9
30 32 34 33 33 40 39 29 18 14 5 5 6 7 6 9 11 7 7 14 9 7 4 3 3 3 4 5 1 8 4 11 11 8 7 6 9 10 4 4 5 6 8 10
38 38 42 42 41 38 38 28 15 14 4 5 7 13 19 16 22 22 21 18 12 3 3 3 3 3 4 2 2 8 7 8 10 7 8 8 5 4 3 5 4 6 8 10
33 36 37 33 28 27 26 6 18 26 28 6 5 2 8 16 21 20 14 9 6 3 3 3 3 2 3 4 5 8 13 12 12 11 5 6 2 3 5 4 3 5 7 6
42 36 29 22 16 19 8 5 3 9 10 4 5 5 2 4 7 5 7 9 4 3 3 2 4 4 5 3 9 7 9 13 13 9 8 8 8 5 7 4 6 5 5 5
30 31 32 32 32 22 12 19 10 7 8 4 4 5 6 1 4 4 2 3 3 3 3 3 4 4 4 5 9 8 10 10 11 10 11 8 5 6 7 8 6 2 4 5
16 16 15 16 14 5 4 6 12 15 7 4 3 8 5 3 3 3 2 1 2 2 3 4 5 4 6 8 9 10 11 9 10 13 10 9 10 9 9 8 4 3 4 5
10 8 6 4 4 6 5 2 3 5 4 4 4 2 6 5 4 3 3 1 3 3 4 4 3 6 13 10 10 8 10 12 10 11 13 13 11 10 9 5 4 4 4 4
7 4 3 3 6 3 4 4 4 3 3 3 3 6 9 2 4 4 1 3 3 3 4 3 3 4 5 6 12 13 11 13 13 12 9 8 8 7 7 6 6 6 5 3
8 11 7 3 4 3 5 3 2 3 3 3 7 6 4 3 1 3 2 3 2 3 5 3 3 3 5 5 7 12 14 13 12 11 9 8 8 9 8 8 8 9 7 5
5 4 4 3 4 5 3 3 3 4 4 5 5 4 3 3 2 3 2 4 3 4 3 3 3 3 5 5 6 8 10 11 10 10 12 12 12 12 13 11 12 11 10 9
3 3 4 3 3 3 3 5 6 4 7 9 8 4 2 2 2 3 4 2 3 3 3 4 2 5 8 7 6 8 9 10 10 12 12 12 13 14 15 17 15 14 13 14
3 3 3 3 3 5 5 5 8 6 7 6 6 4 2 2 3 3 3 5 3 4 3 1 1 5 7 7 7 6 6 5 8 9 8 9 12 13 14 17 20 18 17 15
3 3 3 3 5 3 3 5 7 5 5 4 3 3 3 2 3 4 4 3 4 2 2 1 4 6 6 5 4 2 3 3 4 7 10 13 13 14 18 17 18 21 21 18
2 2 2 3 3 4 3 3 4 4 4 2 2 3 2 3 3 4 4 4 2 2 3 3 2 3 3 2 3 4 4 7 9 10 11 12 14 14 13 12 17 17 18 18
Wind_Direction
204 207 209 209 210 197 176 171 143 167 152 166 196 208 192 192 210 212 226 234 192 187 191 193 205 206 214 159 175 188 195 213 184 204 81 315 246 222 207 213 198 235 274 273
201 202 205 210 209 179 171 153 112 179 179 172 192 187 207 186 188 204 201 195 209 174 186 176 218 162 124 187 186 179 180 196 177 188 202 200 217 195 197 129 122 230 245 251
197 200 201 207 200 185 153 127 129 343 22 201 176 173 188 177 212 210 217 178 169 164 196 194 193 185 117 49 175 18 203 198 221 227 334 176 206 201 201 205 221 243 236 267
196 199 201 208 201 189 150 114 165 184 174 194 188 180 160 170 159 202 181 176 187 161 149 145 180 175 140 105 14 140 241 209 207 112 106 230 238 205 206 208 230 247 264 273
193 198 203 202 193 187 111 127 148 187 182 162 173 183 186 184 156 159 191 202 177 191 160 185 175 159 166 171 170 176 160 106 95 29 315 276 252 236 237 232 245 254 265 273
197 202 202 201 193 186 122 139 100 153 164 170 166 192 185 197 171 84 216 185 125 133 118 122 117 129 139 162 185 160 143 132 138 208 192 223 261 234 227 228 235 249 253 279
193 195 194 193 193 184 124 142 136 133 152 180 189 179 187 187 187 133 155 150 119 120 120 97 86 93 104 128 141 176 172 174 175 167 160 236 92 80 185 212 223 246 258 272
192 194 194 203 172 170 140 134 112 135 135 186 172 168 150 140 121 118 129 133 132 141 127 103 108 105 135 148 124 155 185 153 145 190 213 326 187 203 191 202 239 255 274 304
188 187 181 186 165 166 138 108 104 80 112 200 127 146 161 141 128 114 85 125 147 159 119 142 161 175 158 173 159 184 153 207 198 179 216 224 118 134 148 182 256 131 155 287
162 160 153 155 159 155 143 99 117 94 103 93 132 147 149 133 115 106 121 131 168 192 149 131 149 154 155 165 172 174 171 183 196 197 228 252 176 156 156 214 108 198 309 302
136 136 143 147 142 138 143 111 93 96 82 67 117 137 134 132 143 147 148 126 194 156 119 133 145 153 185 168 167 171 173 169 190 199 217 244 152 151 201 30 330 308 298 301
129 126 128 135 137 142 133 93 107 99 82 87 95 78 74 221 165 124 172 93 151 158 135 142 122 139 165 173 187 194 206 205 179 193 207 116 173 119 96 302 287 294 301 297
119 116 116 120 129 129 127 119 118 98 95 69 62 62 26 81 127 139 128 165 120 90 58 117 102 144 171 178 211 179 200 167 201 176 197 174 178 240 253 244 292 299 296 303
129 131 137 142 129 120 120 118 120 116 121 98 52 26 46 20 138 111 106 121 99 108 93 93 123 130 223 192 169 207 168 174 206 225 218 204 232 252 233 296 296 291 310 315
112 121 119 120 123 121 103 87 87 132 98 113 107 65 26 63 93 96 109 119 118 100 94 91 112 110 154 136 223 218 192 204 204 222 216 216 172 175 217 253 276 313 313 306
102 109 114 112 114 116 109 84 54 90 111 107 97 79 53 77 82 83 81 84 75 77 98 99 101 97 188 204 241 227 225 230 236 245 202 204 184 230 205 228 278 282 289 318
89 94 96 100 113 90 67 80 105 100 100 104 107 110 59 20 73 68 76 61 76 89 103 143 146 162 177 229 238 236 224 224 220 220 176 214 218 211 190 230 239 249 303 319
84 88 88 84 84 78 59 37 60 91 100 84 101 103 135 315 132 109 15 96 101 48 106 146 178 139 208 246 243 230 220 216 207 203 204 220 184 186 203 215 223 275 307 340
72 82 83 81 40 52 34 33 67 62 68 103 106 140 135 150 103 105 108 63 125 104 184 187 177 183 221 234 225 213 213 207 212 210 207 194 207 211 211 212 207 274 310 332
51 55 45 67 29 331 359 39 40 31 36 48 89 161 121 161 147 108 130 141 140 175 171 119 226 251 248 242 224 218 192 195 183 169 193 204 215 214 212 209 206 228 268 302
40 48 60 65 8 43 37 58 40 35 72 64 80 113 124 39 128 115 350 144 158 199 135 219 209 246 228 229 215 211 195 191 191 199 209 209 195 198 209 216 214 223 242 269
83 105 104 64 28 63 74 53 91 53 95 102 129 102 91 92 113 120 160 141 189 184 135 214 234 226 218 200 186 193 194 192 201 206 209 204 203 204 217 218 222 228 229 232
46 51 56 1 3 59 68 112 102 119 123 141 141 115 105 118 95 100 148 170 164 116 195 233 234 160 166 146 136 155 180 194 204 207 212 215 220 218 219 233 231 224 226 223
61 51 66 26 77 72 81 95 108 93 129 127 116 100 112 112 137 132 161 122 170 215 224 232 236 179 154 150 153 159 177 193 210 220 222 228 228 230 228 229 226 217 224 227
63 28 65 72 97 90 88 100 115 118 120 125 113 101 117 129 136 179 133 172 211 224 238 267 21 138 142 164 180 200 217 220 228 235 237 241 228 225 230 226 229 226 226 226
51 57 95 103 125 113 108 110 118 130 127 124 108 127 134 144 151 171 184 195 221 194 208 161 144 143 151 158 172 232 301 275 244 249 243 249 245 237 239 239 228 230 225 224
85 81 65 77 94 139 136 148 134 147 162 139 139 142 134 120 189 196 186 216 192 171 158 145 94 132 109 41 355 20 351 314 302 290 276 264 270 266 250 247 253 248 246 234
Height
600 609 619 628 635 643 653 659 670 682 683 702 704 704 700 702 699 704 703 694 694 703 707 711 712 716 724 737 732 739 735 739 754 752 758 756 745 747 754 765 778 769 768 747
591 601 611 620 628 628 637 649 672 677 676 685 698 695 695 699 695 697 703 701 704 716 711 729 721 727 743 741 737 734 741 740 757 761 763 761 755 756 757 777 778 765 772 746
583 594 603 612 620 627 629 649 667 678 676 675 678 690 691 700 700 694 702 705 706 719 721 718 725 729 743 747 743 750 740 734 732 731 734 733 755 756 759 763 773 761 757 750
578 587 595 604 610 621 621 635 655 652 665 674 669 674 687 693 704 704 705 719 707 710 735 741 741 737 746 751 754 751 744 742 744 749 751 751 749 755 760 765 770 773 763 757
572 581 591 597 604 612 617 634 643 655 641 667 666 666 678 679 698 698 704 696 709 707 723 716 734 737 745 746 752 749 752 765 762 771 766 765 765 761 761 764 767 763 763 764
569 578 584 591 599 610 615 628 631 634 643 661 660 659 666 672 687 702 689 695 714 723 728 725 731 738 743 743 740 749 760 767 773 773 767 773 771 758 758 762 762 764 764 763
567 574 580 586 593 601 608 617 626 639 644 652 644 655 664 671 678 692 700 703 711 727 730 734 744 749 754 755 755 749 755 756 761 768 773 776 750 756 752 758 763 765 765 764
568 574 576 584 588 597 604 611 619 633 643 650 653 658 672 679 689 698 701 709 712 719 726 740 751 758 755 758 757 755 748 755 775 773 764 745 760 760 764 766 761 760 763 765
563 570 577 586 589 598 605 613 615 626 638 653 653 662 668 676 686 700 712 714 715 714 715 720 726 734 728 745 756 761 759 750 752 772 769 753 738 754 761 764 761 768 770 771
562 569 575 583 590 596 601 615 616 626 644 654 654 662 665 678 682 694 708 715 726 717 712 717 720 724 718 735 745 764 762 769 762 763 761 746 743 758 761 767 757 764 768 768
566 569 574 583 588 594 599 617 619 624 648 665 667 667 665 673 673 681 706 715 720 714 716 718 720 720 726 727 728 748 755 758 762 759 765 761 749 758 760 753 759 763 765 766
569 573 577 585 588 595 602 618 627 630 646 666 669 669 671 671 670 679 699 694 699 703 708 712 721 727 732 723 736 742 743 734 739 742 737 740 745 744 754 758 760 761 764 765
573 576 578 587 594 601 605 616 626 634 653 670 674 677 676 673 677 682 691 697 702 701 704 715 722 725 724 730 727 733 736 737 740 742 741 744 746 749 753 756 760 762 764 764
584 587 592 598 598 606 611 616 625 636 650 668 683 681 681 682 681 682 685 693 702 706 711 718 719 720 727 723 724 723 728 736 734 736 738 744 747 747 751 757 761 762 761 762
594 595 597 600 605 613 616 623 634 638 641 666 683 682 688 686 685 689 692 695 697 706 714 717 721 724 729 732 731 726 729 725 729 733 736 740 741 747 755 758 759 759 761 760
604 606 609 610 612 616 619 631 644 642 647 659 688 703 700 698 696 697 700 702 705 712 716 721 724 730 729 732 723 720 722 724 726 729 735 741 746 750 754 757 758 760 760 757
611 612 614 616 618 619 630 640 650 649 653 665 683 696 704 703 701 706 707 709 711 713 720 719 718 724 732 728 722 717 722 723 727 731 737 742 743 746 752 756 758 758 756 753
620 621 621 622 623 629 638 646 648 650 654 661 681 696 700 706 704 709 714 712 713 717 719 724 721 729 726 725 713 717 721 723 726 730 734 737 742 748 751 754 754 752 750 750
626 626 627 629 635 645 653 653 652 654 657 669 679 681 695 704 706 708 713 713 714 723 719 717 721 717 721 709 709 713 718 722 726 728 732 736 741 743 746 747 746 747 747 747
629 629 635 649 656 655 654 656 655 659 665 670 681 685 693 697 700 708 709 712 711 715 714 719 721 708 702 703 708 710 714 719 722 729 731 734 736 738 740 739 742 744 745 745
634 641 649 656 654 654 657 666 667 668 674 675 685 681 687 701 696 703 708 710 711 713 709 716 708 701 698 700 703 708 712 716 720 724 724 726 732 736 737 737 738 740 740 740
646 647 655 657 658 660 665 680 676 669 675 684 684 693 697 707 706 706 717 712 716 708 713 716 703 694 695 699 701 704 708 713 716 720 723 726 729 731 734 734 734 734 735 735
650 651 659 657 669 667 665 677 675 674 679 687 697 701 704 708 708 711 711 710 707 705 710 698 690 690 694 697 700 703 706 710 714 718 721 723 725 726 728 727 727 728 729 730
655 659 668 668 669 670 668 662 669 684 681 683 692 700 701 704 706 705 705 704 704 706 703 696 684 686 690 696 700 703 706 710 713 714 716 717 719 719 720 721 722 722 722 723
661 660 669 672 677 676 679 678 678 683 683 685 695 700 700 706 705 701 703 710 702 695 689 687 687 688 691 696 701 703 705 709 711 712 713 712 713 713 713 714 714 715 714 715
668 670 674 678 674 682 682 679 681 684 685 686 687 695 699 700 695 699 697 695 692 687 689 689 689 691 693 696 700 703 705 707 709 709 709 709 709 708 706 706 706 706 705 705
672 679 679 677 676 676 680 680 682 685 684 686 686 694 692 695 692 691 688 688 682 685 688 690 691 692 695 698 700 704 705 706 706 706 705 703 703 702 702 700 699 701 701 697